Zurück zum Katalog

STARLINK-1172

AktivKommunikationVLEO
NORAD 45074·PAYLOAD·🇺🇸 United States

Gestartet Jan 29, 2020 von Cape Canaveral Space Force Station

Loading…

Nächste Überflüge (nächste 24 Stunden)

TLE

AktuellSource: CelesTrak SupGP

Epoche: Sep 15, 2026, 01:36 UTC

1 45074C 20006AG  26258.06715278  .00051150  00000+0  10019-2 0  2589
2 45074  53.1492  86.5256 0002049 142.5650  20.9487 15.46768782    11

Verfolge STARLINK-1172 in Echtzeit mit AllMySat

Download on the App Store